{"data":{"norad_id":67209,"intl_designator":"2025-304T","name":"STARLINK-36226","alt_names":[],"object_type":"PAYLOAD","status":"ACTIVE","operator":null,"country":"US","launch_date":"2025-12-17","launch_site_code":"AFWTR","launch_vehicle":null,"mission":null,"orbit_class":"UNKNOWN","rcs_meters":null,"size_class":null,"mass_kg":null,"dimensions":null,"purposes":["comms"],"wikipedia_slug":null,"has_3d_model":false,"image_url":null,"decayed_at":null,"tle_current":{"epoch":"2026-09-20T15:44:26.837088Z","epoch_age_seconds":64819,"freshness":"FRESH","line1":"1 67209U 25304T   26263.65586617  .00002675  00000+0  23187-3 0  9994","line2":"2 67209  70.0000  43.0789 0003481 263.0338  97.0425 14.98336386 43088","mean_motion":14.98336386,"eccentricity":0.0003481,"inclination_deg":70,"raan_deg":43.0789,"arg_perigee_deg":263.0338,"mean_anomaly_deg":97.0425,"bstar":0.00023187,"rev_number":4308,"period_min":96.106589511869,"perigee_km":569.61678756532,"apogee_km":574.45549810736,"semimajor_km":6950.1731428363,"source":"CELESTRAK","updated_at":"2026-09-21T09:00:36.138755Z"}}}